Starlink 11236

operational
NORAD ID: 61062 Int'l Des: 2024-164 Owner: SPXS Country: US Constellation: starlink
LEOCIRCULAR

About Starlink 11236

Description loading...

Live Position

Loading 3D Globe...

Upcoming Passes

Altitude History

Altitude vs Time

uPlot chart will show altitude changes over time

Two-Line Element Set

1 61062U 24164N 26036.57335492 .00003848 00000-0 36590-4 0 9997
2 61062 53.1576 109.6643 0001356 61.1500 298.9654 15.69721874 80372
Epoch: Feb 5, 2026 • Age: 17 hours

Current Status

Altitude 375.0 km
Velocity 7.68 km/s
Sub-Earth Point -44.07°S, 171°W
Launch Date Sep 13, 2024
Age 1.3 years
Type internet

Technical Details

Classification Payload
Mass 960.00 kg
Dry Mass 910.00 kg
Total Mass 960.00 kg
Length 0.30 m
Diameter 4.10 m
Span 29.00 m
Shape Box + pan
Manufacturer SPXS
Bus Type Starlink V2MD
Phase Status In Orbit
Owner/State SPXS/US

Large Constellations

Loading constellations...